Home > Weather > Zhengzhou > Past weeks

Flag for China Weather for the Past 2 Weeks in Zhengzhou, Henan, China

Now
52 °F

Clear.


Feels Like: 51 °F
Forecast: 32 / 60 °F
Wind: 3 mph from Southwest

Location: Zhengzhou Airport

Current Time: Feb 8, 2016 at 11:30:23 PM

Latest Report: Feb 8, 2016 at 11:00 PM


Visibility: 4 mi

Pressure: 30.04 "Hg

Humidity: 28%

Dew point: 19 °F

Location of ZhengzhouLocation

Historic Weather in Zhengzhou — Graph

°F

Zhengzhou Temperature Yesterday

Maximum temperature yesterday: 54 °F (at 3:00 PM)
Minimum temperature yesterday: 30 °F (at 7:00 AM)
Average temperature yesterday: 42 °F

High & Low Weather Summary for the Past Weeks

 TemperatureHumidityPressure
High70 °F (Feb 8, 3:00 PM)93% (Jan 30, 6:00 AM)30.69 "Hg (Jan 30, 6:00 AM)
Low14 °F (Feb 1, 3:00 AM)9% (Jan 25, 4:00 PM)29.98 "Hg (Feb 8, 3:00 PM)
Average35 °F43%30.39 "Hg
* Reported Jan 24 10:00 PM — Feb 8 10:00 PM, Zhengzhou, Weather by CustomWeather, © 2016

Note: Actual official high and low records may vary slightly from our data, if they occured in-between our weather recording intervals... More about our weather records

Advertising

Zhengzhou Weather History for the Previous 24 Hours

 ConditionsComfort  
Time TempWeatherWind HumidityBarometerVisibility
10:00 PM
Mon, Feb 8
48 °FClear.3 mph34%30.04 "Hg4 mi
9:00 PM54 °FClear.1 mph30%30.01 "Hg4 mi
8:00 PM57 °FClear.6 mph27%30.01 "Hg4 mi
7:00 PM59 °FPassing clouds.3 mph21%30.01 "HgN/A
6:00 PM61 °FSunny.3 mph13%29.98 "Hg10 mi
5:00 PM68 °FSunny.6 mph10%29.98 "Hg10 mi
4:00 PM70 °FPassing clouds.8 mph9%29.98 "HgN/A
3:00 PM70 °FSunny.13 mph9%29.98 "Hg10 mi
2:00 PM68 °FPassing clouds.15 mph10%30.01 "HgN/A
1:00 PM66 °FSunny.17 mph11%30.04 "Hg10 mi
12:00 PM66 °FSunny.15 mph11%30.04 "Hg10 mi
11:00 AM63 °FPassing clouds.8 mph14%30.07 "HgN/A
10:00 AM55 °FSunny.10 mph16%30.07 "Hg10 mi
9:00 AM48 °FClear.1 mph25%30.07 "Hg4 mi
8:00 AM39 °FClear.3 mph36%30.07 "Hg4 mi
7:00 AM41 °FClear.6 mph33%30.04 "Hg4 mi
6:00 AM39 °FClear.6 mph36%30.04 "Hg10 mi
5:00 AM39 °FClear.3 mph36%30.07 "Hg10 mi
4:00 AM45 °FClear.3 mph27%30.07 "Hg10 mi
3:00 AM34 °FClear.3 mph44%30.09 "Hg10 mi
2:00 AM39 °FPassing clouds.3 mph33%30.12 "HgN/A
1:00 AM30 °FClear.No wind55%30.15 "Hg10 mi
12:00 AM32 °FClear.No wind44%30.15 "Hg10 mi
11:00 PM
Sun, Feb 7
32 °FClear.1 mph44%30.15 "Hg10 mi
Weather by CustomWeather, © 2016

See weather overviewHow to use our weather pages